This is the latest recevied weather packets stored in our database for station/object SP4FDH-13. If no packets are shown the sender has not sent any weather packets the latest 10 day(s).
| Time | Temp. | Humidity | Pressure | Rain* | Wind** | Luminosity | Snow |
|---|---|---|---|---|---|---|---|
| 1777909196 | 27.78° C | 32% | 1007.2 hPa | - | - | - | - |
| 1777908621 | 27.78° C | 32% | 1007.2 hPa | - | - | - | - |
| 1777908045 | 27.78° C | 31% | 1007.2 hPa | - | - | - | - |
| 1777907469 | 28.33° C | 31% | 1007.1 hPa | - | - | - | - |
| 1777906893 | 28.89° C | 29% | 1007.1 hPa | - | - | - | - |
| 1777906318 | 29.44° C | 30% | 1007.2 hPa | - | - | - | - |
| 1777905742 | 29.44° C | 29% | 1007.2 hPa | - | - | - | - |
| 1777905167 | 28.89° C | 29% | 1007.2 hPa | - | - | - | - |
| 1777904591 | 29.44° C | 30% | 1007.3 hPa | - | - | - | - |
| 1777904016 | 29.44° C | 29% | 1007.3 hPa | - | - | - | - |
| 1777903437 | 29.44° C | 28% | 1007.2 hPa | - | - | - | - |
| 1777902861 | 30° C | 27% | 1007.1 hPa | - | - | - | - |
| 1777902284 | 29.44° C | 28% | 1007.2 hPa | - | - | - | - |
| 1777901708 | 29.44° C | 28% | 1007.2 hPa | - | - | - | - |
| 1777901132 | 30° C | 27% | 1007.3 hPa | - | - | - | - |
| 1777900556 | 30.56° C | 27% | 1007.3 hPa | - | - | - | - |
| 1777899979 | 30° C | 27% | 1007.5 hPa | - | - | - | - |
| 1777899404 | 30° C | 28% | 1007.6 hPa | - | - | - | - |
| 1777898827 | 30.56° C | 26% | 1007.6 hPa | - | - | - | - |
| 1777898250 | 30° C | 26% | 1007.5 hPa | - | - | - | - |
| 1777897674 | 29.44° C | 26% | 1007.5 hPa | - | - | - | - |
| 1777897098 | 30.56° C | 25% | 1007.6 hPa | - | - | - | - |
| 1777896522 | 31.11° C | 25% | 1007.7 hPa | - | - | - | - |
| 1777895945 | 30.56° C | 26% | 1007.7 hPa | - | - | - | - |
| 1777895369 | 30.56° C | 25% | 1007.7 hPa | - | - | - | - |
* Rain since midnight (hover to see other rain measurements)
** Current wind speed in m/s (hover to see current wind gust speed)